Weather History for KDTL - June, 2012

Change the Weather History Date:

Friday, June 1, 2012

  Actual Average Record
Temperature  
Mean Temperature 57 °F -  
Max Temperature 68 °F 71 °F 99 °F (1934)
Min Temperature 46 °F 48 °F 31 °F (1956)
Degree Days  
Heating Degree Days 8    
Growing Degree Days 7 (Base 50)    
Moisture  
Dew Point 42 °F    
Average Humidity 58    
Maximum Humidity 88    
Minimum Humidity 33    
Precipitation  
Precipitation 0.00 in - - ()
Sea Level Pressure  
Sea Level Pressure 29.88 in    
Wind  
Wind Speed 4 mph (SW)    
Max Wind Speed 13 mph    
Max Gust Speed 17 mph    
Visibility 10 miles    
Events      
Averages and records for this station are not official NWS values.
T = Trace of Precipitation, MM = Missing Value Source: NWS Daily Summary

Daily Weather History Graph

Daily Weather History Graph

Search for Another Location

Airport or City:

Trip Planner

Search our weather history database for the weather conditions in past years. The results will help you decide how hot, cold, wet, or windy it might be!

Date:

Astronomy

Jun. 01, 2012 Rise Set
Actual Time 5:32 AM CDT 9:10 PM CDT
Civil Twilight 4:54 AM CDT 9:49 PM CDT
Nautical Twilight 4:03 AM CDT 10:40 PM CDT
Astronomical Twilight 2:53 AM CDT 11:51 PM CDT
Moon 6:06 PM CDT (6/1) 3:19 AM CDT (6/1)
Length of Visible Light 16h 54m
Length of Day
15h 37m
Waxing Gibbous, 89% of the Moon is Illuminated
Jun 1
Waxing Gibbous
Jun 4
Full
Jun 11
Last Quarter
Jun 19
New
Jun 26
First Quarter

Hourly Weather History & Observations

Time (CDT) Temp. Windchill Dew Point Humidity Pressure Visibility Wind Dir Wind Speed Gust Speed Precip Events Conditions
12:13 AM 51.8 °F - 42.8 °F 71% 29.98 in 10.0 mi SSW 5.8 mph - N/A   Clear
12:32 AM 51.8 °F - 42.8 °F 71% 29.98 in 10.0 mi SSW 4.6 mph - N/A   Clear
12:53 AM 51.8 °F - 42.8 °F 71% 29.97 in 10.0 mi SSW 3.5 mph - N/A   Clear
1:13 AM 51.8 °F - 42.8 °F 71% 29.96 in 10.0 mi SSW 4.6 mph - N/A   Clear
1:33 AM 51.8 °F - 42.8 °F 71% 29.96 in 10.0 mi Calm Calm - N/A   Clear
1:53 AM 51.8 °F - 42.8 °F 71% 29.95 in 10.0 mi South 3.5 mph - N/A   Clear
2:13 AM 50.0 °F - 42.8 °F 76% 29.95 in 10.0 mi Calm Calm - N/A   Clear
2:33 AM 50.0 °F - 42.8 °F 76% 29.95 in 10.0 mi SSW 3.5 mph - N/A   Clear
2:53 AM 50.0 °F - 42.8 °F 76% 29.95 in 10.0 mi SSW 4.6 mph - N/A   Clear
3:13 AM 50.0 °F - 42.8 °F 76% 29.95 in 10.0 mi South 4.6 mph - N/A   Clear
3:33 AM 50.0 °F - 41.0 °F 71% 29.94 in 10.0 mi SSW 3.5 mph - N/A   Clear
4:13 AM 51.8 °F - 41.0 °F 67% 29.94 in 10.0 mi Calm Calm - N/A   Clear
4:33 AM 50.0 °F - 41.0 °F 71% 29.93 in 10.0 mi SSE 3.5 mph - N/A   Clear
4:52 AM 46.4 °F - 41.0 °F 81% 29.94 in 10.0 mi Calm Calm - N/A   Clear
5:13 AM 50.0 °F - 41.0 °F 71% 29.93 in 10.0 mi Calm Calm - N/A   Clear
5:32 AM 48.2 °F - 41.0 °F 76% 29.94 in 10.0 mi Calm Calm - N/A   Clear
5:53 AM 48.2 °F - 41.0 °F 76% 29.94 in 10.0 mi Calm Calm - N/A   Clear
6:13 AM 48.2 °F - 42.8 °F 82% 29.94 in 10.0 mi South 3.5 mph - N/A   Clear
6:32 AM 46.4 °F 45.2 °F 42.8 °F 87% 29.94 in 10.0 mi SSW 3.5 mph - N/A   Clear
7:13 AM 51.8 °F - 44.6 °F 76% 29.94 in 10.0 mi Calm Calm - N/A   Clear
7:32 AM 53.6 °F - 44.6 °F 72% 29.94 in 10.0 mi Calm Calm - N/A   Clear
8:13 AM 57.2 °F - 44.6 °F 63% 29.93 in 10.0 mi Calm Calm - N/A   Clear
8:32 AM 59.0 °F - 44.6 °F 59% 29.93 in 10.0 mi WSW 4.6 mph - N/A   Clear
8:53 AM 59.0 °F - 42.8 °F 55% 29.93 in 10.0 mi West 3.5 mph - N/A   Clear
9:13 AM 60.8 °F - 42.8 °F 52% 29.93 in 10.0 mi West 5.8 mph - N/A   Clear
9:32 AM 60.8 °F - 42.8 °F 52% 29.92 in 10.0 mi WNW 5.8 mph - N/A   Clear
9:53 AM 60.8 °F - 41.0 °F 48% 29.92 in 10.0 mi West 5.8 mph - N/A   Clear
10:12 AM 62.6 °F - 37.4 °F 39% 29.91 in 10.0 mi WSW 6.9 mph - N/A   Clear
10:33 AM 62.6 °F - 37.4 °F 39% 29.91 in 10.0 mi WSW 6.9 mph - N/A   Clear
10:53 AM 62.6 °F - 39.2 °F 42% 29.91 in 10.0 mi SW 6.9 mph - N/A   Clear
11:12 AM 62.6 °F - 37.4 °F 39% 29.91 in 10.0 mi SW 8.1 mph - N/A   Clear
11:33 AM 62.6 °F - 37.4 °F 39% 29.90 in 10.0 mi WSW 6.9 mph - N/A   Clear
11:53 AM 62.6 °F - 39.2 °F 42% 29.90 in 10.0 mi SSW 8.1 mph - N/A   Clear
12:13 PM 62.6 °F - 41.0 °F 45% 29.90 in 10.0 mi SSW 6.9 mph - N/A   Clear
12:33 PM 64.4 °F - 41.0 °F 42% 29.89 in 10.0 mi SSW 6.9 mph - N/A   Clear
12:52 PM 64.4 °F - 41.0 °F 42% 29.88 in 10.0 mi South 9.2 mph - N/A   Clear
1:13 PM 66.2 °F - 37.4 °F 35% 29.88 in 10.0 mi SSE 9.2 mph - N/A   Clear
1:32 PM 64.4 °F - 37.4 °F 37% 29.87 in 10.0 mi South 6.9 mph - N/A   Scattered Clouds
1:53 PM 64.4 °F - 37.4 °F 37% 29.86 in 10.0 mi South 11.5 mph 16.1 mph N/A   Clear
2:13 PM 68.0 °F - 37.4 °F 33% 29.85 in 10.0 mi SSW 12.7 mph - N/A   Clear
2:33 PM 64.4 °F - 37.4 °F 37% 29.84 in 10.0 mi South 10.4 mph 16.1 mph N/A   Clear
3:12 PM 66.2 °F - 37.4 °F 35% 29.83 in 10.0 mi SSW 11.5 mph 17.3 mph N/A   Clear
3:33 PM 66.2 °F - 37.4 °F 35% 29.82 in 10.0 mi South 10.4 mph 17.3 mph N/A   Clear
3:53 PM 66.2 °F - 37.4 °F 35% 29.82 in 10.0 mi South 8.1 mph - N/A   Clear
4:13 PM 64.4 °F - 37.4 °F 37% 29.82 in 10.0 mi South 9.2 mph - N/A   Clear
4:33 PM 66.2 °F - 37.4 °F 35% 29.81 in 10.0 mi South 5.8 mph - N/A   Clear
4:53 PM 68.0 °F - 39.2 °F 35% 29.81 in 10.0 mi SSE 9.2 mph - N/A   Clear
5:12 PM 64.4 °F - 37.4 °F 37% 29.81 in 10.0 mi South 3.5 mph - N/A   Clear
5:33 PM 64.4 °F - 37.4 °F 37% 29.80 in 10.0 mi South 3.5 mph - N/A   Clear
6:12 PM 66.2 °F - 39.2 °F 37% 29.79 in 10.0 mi South 5.8 mph - N/A   Clear
6:33 PM 64.4 °F - 41.0 °F 42% 29.79 in 10.0 mi South 8.1 mph - N/A   Clear
6:53 PM 64.4 °F - 41.0 °F 42% 29.79 in 10.0 mi SSW 4.6 mph - N/A   Scattered Clouds
7:12 PM 64.4 °F - 39.2 °F 40% 29.79 in 10.0 mi Calm Calm - N/A   Clear
7:33 PM 64.4 °F - 41.0 °F 42% 29.78 in 10.0 mi Calm Calm - N/A   Clear
7:53 PM 64.4 °F - 41.0 °F 42% 29.78 in 10.0 mi Calm Calm - N/A   Clear
8:12 PM 64.4 °F - 42.8 °F 45% 29.78 in 10.0 mi WNW 9.2 mph - N/A   Scattered Clouds
8:33 PM 60.8 °F - 48.2 °F 63% 29.79 in 10.0 mi West 9.2 mph - N/A   Clear
8:53 PM 60.8 °F - 50.0 °F 68% 29.80 in 10.0 mi West 6.9 mph - N/A   Clear
9:13 PM 59.0 °F - 50.0 °F 72% 29.80 in 10.0 mi WNW 8.1 mph - N/A   Clear
9:33 PM 57.2 °F - 50.0 °F 77% 29.81 in 10.0 mi West 3.5 mph - N/A   Clear
9:53 PM 55.4 °F - 50.0 °F 82% 29.81 in 10.0 mi NW 3.5 mph - N/A   Clear
10:13 PM 55.4 °F - 50.0 °F 82% 29.81 in 10.0 mi NW 3.5 mph - N/A   Clear
10:33 PM 55.4 °F - 50.0 °F 82% 29.81 in 10.0 mi NW 3.5 mph - N/A   Clear
10:53 PM 55.4 °F - 50.0 °F 82% 29.81 in 10.0 mi Calm Calm - N/A   Clear
11:13 PM 53.6 °F - 50.0 °F 88% 29.81 in 10.0 mi Calm Calm - N/A   Clear
11:33 PM 53.6 °F - 50.0 °F 88% 29.80 in 10.0 mi Calm Calm - N/A   Clear
11:53 PM 53.6 °F - 50.0 °F 88% 29.81 in 10.0 mi Calm Calm - N/A   Clear